EFW7EL EGKK-LEPA

Flight info

Callsign EFW7EL
Flight time N/A
Altitude 35000
Route SFD4Z SFD Y47 DRAKE L151 SITET UN859 SOPIL DCT BALAN DCT EVPOK DCT NARAK DCT GAI DCT LOMRA DCT ROCAN DCT IBRAP DCT LUKEV DCT LORES LORES2R
Aircraft A321/M-SDE3FGIJ1RWXY/SB1

Departure

Time N/A
Airport London Gatwick Airport (EGKK)

Arrival

Time 2026-05-07 20:45
Airport Palma de Mallorca Airport (LEPA)
Time Latitude Longitude Altitude Speed Heading
2026-05-07 19:25 46.47543 1.04679 35000 ft 435 kts 171°
2026-05-07 19:25 46.44592 1.05671 35002 ft 435 kts 171°
2026-05-07 19:25 46.38690 1.07654 35002 ft 435 kts 171°
2026-05-07 19:26 46.32784 1.09631 34998 ft 435 kts 171°
2026-05-07 19:26 46.26895 1.11589 34999 ft 435 kts 171°
2026-05-07 19:27 46.20978 1.13551 35006 ft 435 kts 171°
2026-05-07 19:27 46.15087 1.15498 34995 ft 435 kts 170°
2026-05-07 19:28 46.09173 1.17455 34993 ft 435 kts 170°
2026-05-07 19:28 46.03306 1.19397 34980 ft 435 kts 171°
2026-05-07 19:29 45.97402 1.21337 34987 ft 435 kts 171°
2026-05-07 19:29 45.91461 1.23283 34983 ft 435 kts 171°
2026-05-07 19:30 45.85566 1.25214 34992 ft 435 kts 171°
2026-05-07 19:30 45.79676 1.27152 34992 ft 435 kts 171°
2026-05-07 19:31 45.73770 1.29082 34991 ft 435 kts 171°
2026-05-07 19:31 45.67910 1.30985 35003 ft 434 kts 171°
2026-05-07 19:32 45.62011 1.32897 34998 ft 434 kts 171°
2026-05-07 19:32 45.56114 1.34816 34991 ft 434 kts 170°
2026-05-07 19:33 45.50213 1.36722 34995 ft 435 kts 170°
2026-05-07 19:33 45.44310 1.38624 35004 ft 435 kts 170°
2026-05-07 19:34 45.38403 1.40524 35003 ft 435 kts 170°
2026-05-07 19:34 45.32493 1.42421 34996 ft 435 kts 170°
2026-05-07 19:35 45.26584 1.44320 34992 ft 436 kts 170°
2026-05-07 19:35 45.20669 1.46217 34991 ft 436 kts 170°
2026-05-07 19:36 45.14755 1.48108 34990 ft 436 kts 170°
2026-05-07 19:36 45.08840 1.50002 34991 ft 436 kts 170°
2026-05-07 19:37 45.02911 1.51883 34992 ft 436 kts 170°
2026-05-07 19:37 44.96976 1.53752 34985 ft 437 kts 170°
2026-05-07 19:38 44.91044 1.55632 34994 ft 437 kts 170°
2026-05-07 19:38 44.85109 1.57510 34998 ft 437 kts 170°
2026-05-07 19:39 44.79203 1.59378 34999 ft 438 kts 170°
2026-05-07 19:39 44.74227 1.60945 34996 ft 437 kts 170°
2026-05-07 19:40 44.67321 1.63102 34998 ft 437 kts 170°
2026-05-07 19:40 44.61344 1.64974 34998 ft 437 kts 170°
2026-05-07 19:41 44.55408 1.66840 34993 ft 437 kts 170°
2026-05-07 19:41 44.49470 1.68697 34997 ft 437 kts 170°
2026-05-07 19:42 44.43576 1.70529 34999 ft 437 kts 170°
2026-05-07 19:42 44.37647 1.72367 34997 ft 437 kts 170°
2026-05-07 19:43 44.31714 1.74206 34998 ft 436 kts 170°
2026-05-07 19:43 44.25834 1.75879 34996 ft 435 kts 173°
2026-05-07 19:44 44.20858 1.76956 34992 ft 434 kts 174°
2026-05-07 19:44 44.14878 1.78148 34995 ft 434 kts 174°
2026-05-07 19:45 44.08900 1.79412 34994 ft 434 kts 174°
2026-05-07 19:45 44.02933 1.80740 34995 ft 434 kts 173°
2026-05-07 19:46 43.96976 1.82075 34996 ft 434 kts 174°
2026-05-07 19:46 43.91001 1.83096 34998 ft 431 kts 178°
2026-05-07 19:47 43.85024 1.83589 35003 ft 430 kts 180°
2026-05-07 19:47 43.79037 1.84016 34996 ft 430 kts 180°
2026-05-07 19:48 43.73057 1.84545 35000 ft 430 kts 179°
2026-05-07 19:48 43.67082 1.85142 35001 ft 430 kts 179°
2026-05-07 19:49 43.61111 1.85748 34994 ft 430 kts 179°
2026-05-07 19:49 43.55142 1.86326 34996 ft 430 kts 179°
2026-05-07 19:50 43.49207 1.86891 34995 ft 430 kts 179°
2026-05-07 19:50 43.43239 1.87450 34995 ft 430 kts 179°
2026-05-07 19:51 43.37275 1.88030 34992 ft 429 kts 179°
2026-05-07 19:51 43.31333 1.88605 34993 ft 428 kts 179°
2026-05-07 19:52 43.25396 1.89171 34993 ft 427 kts 179°
2026-05-07 19:52 43.19471 1.89730 34986 ft 426 kts 180°
2026-05-07 19:53 43.13558 1.90284 34999 ft 424 kts 179°
2026-05-07 19:53 43.07675 1.90845 35005 ft 423 kts 179°
2026-05-07 19:54 43.01811 1.91407 35004 ft 421 kts 180°
2026-05-07 19:54 42.96059 1.91963 34984 ft 411 kts 181°
2026-05-07 19:55 42.90377 1.92504 34985 ft 409 kts 181°
2026-05-07 19:55 42.84702 1.93034 34985 ft 409 kts 181°
2026-05-07 19:56 42.79028 1.93559 34993 ft 409 kts 181°
2026-05-07 19:56 42.73349 1.94101 35007 ft 409 kts 181°
2026-05-07 19:57 42.67670 1.94700 35021 ft 412 kts 176°
2026-05-07 19:57 42.62059 1.96551 35021 ft 416 kts 171°
2026-05-07 19:58 42.56459 1.98583 35028 ft 416 kts 171°
2026-05-07 19:58 42.50864 2.00602 35045 ft 416 kts 171°
2026-05-07 19:59 42.45313 2.02591 35041 ft 415 kts 171°
2026-05-07 19:59 42.39723 2.04581 35049 ft 415 kts 171°
2026-05-07 20:00 42.34129 2.06579 35056 ft 416 kts 171°
2026-05-07 20:00 42.28538 2.08576 35061 ft 415 kts 171°
2026-05-07 20:01 42.22950 2.10558 35058 ft 415 kts 171°
2026-05-07 20:01 42.17374 2.12531 35053 ft 415 kts 170°
2026-05-07 20:02 42.11782 2.14504 35042 ft 415 kts 170°
2026-05-07 20:02 42.06193 2.16476 35044 ft 415 kts 170°
2026-05-07 20:03 42.00600 2.18448 35045 ft 415 kts 170°
2026-05-07 20:03 41.95010 2.20413 35026 ft 415 kts 170°
2026-05-07 20:04 41.89414 2.22370 35031 ft 415 kts 170°
2026-05-07 20:04 41.83820 2.24325 35031 ft 416 kts 170°
2026-05-07 20:05 41.78226 2.26295 35029 ft 416 kts 170°
2026-05-07 20:05 41.72633 2.28251 35019 ft 416 kts 170°
2026-05-07 20:06 41.67028 2.30202 35007 ft 416 kts 170°
2026-05-07 20:06 41.61427 2.32155 35010 ft 416 kts 170°
2026-05-07 20:07 41.55823 2.34113 35013 ft 416 kts 170°
2026-05-07 20:07 41.50210 2.36065 35009 ft 417 kts 170°
2026-05-07 20:08 41.44636 2.37990 35024 ft 417 kts 170°
2026-05-07 20:08 41.39007 2.39919 35031 ft 417 kts 170°
2026-05-07 20:09 41.33384 2.41855 35034 ft 417 kts 170°
2026-05-07 20:10 41.24941 2.44782 35022 ft 418 kts 170°
2026-05-07 20:10 41.19301 2.46730 35022 ft 419 kts 170°
2026-05-07 20:11 41.13653 2.48657 35018 ft 419 kts 170°
2026-05-07 20:11 41.08003 2.50591 35011 ft 419 kts 170°
2026-05-07 20:12 41.02350 2.52535 35011 ft 420 kts 170°
2026-05-07 20:12 40.96722 2.54455 35014 ft 420 kts 170°
2026-05-07 20:13 40.91015 2.56391 35017 ft 421 kts 170°
2026-05-07 20:13 40.85337 2.58312 34990 ft 422 kts 170°
2026-05-07 20:14 40.79640 2.60237 34894 ft 424 kts 170°
2026-05-07 20:14 40.76764 2.61211 34039 ft 430 kts 169°
2026-05-07 20:14 40.73858 2.62197 33200 ft 430 kts 169°
2026-05-07 20:14 40.70964 2.63183 32435 ft 429 kts 168°
2026-05-07 20:15 40.68075 2.64169 31620 ft 429 kts 168°
2026-05-07 20:15 40.65227 2.65137 31064 ft 424 kts 168°
2026-05-07 20:15 40.62389 2.66096 30571 ft 419 kts 168°
2026-05-07 20:15 40.59580 2.67043 30062 ft 414 kts 167°
2026-05-07 20:16 40.56792 2.67981 29515 ft 415 kts 168°
2026-05-07 20:16 40.53984 2.68921 29001 ft 417 kts 168°
2026-05-07 20:16 40.51183 2.69894 28484 ft 416 kts 165°
2026-05-07 20:16 40.48503 2.71337 27924 ft 416 kts 155°
2026-05-07 20:17 40.45977 2.73168 27393 ft 414 kts 153°
2026-05-07 20:17 40.43471 2.74993 26855 ft 410 kts 154°
2026-05-07 20:17 40.40988 2.76797 26329 ft 406 kts 154°
2026-05-07 20:17 40.38529 2.78578 25806 ft 403 kts 154°
2026-05-07 20:18 40.36082 2.80347 25292 ft 399 kts 154°
2026-05-07 20:18 40.33657 2.82099 24783 ft 396 kts 154°
2026-05-07 20:18 40.31253 2.83836 24290 ft 393 kts 154°
2026-05-07 20:18 40.28863 2.85565 23800 ft 391 kts 154°
2026-05-07 20:19 40.26490 2.87277 23289 ft 388 kts 154°
2026-05-07 20:19 40.24136 2.88972 22820 ft 385 kts 154°
2026-05-07 20:19 40.21792 2.90658 22373 ft 383 kts 154°
2026-05-07 20:19 40.19473 2.92329 21922 ft 378 kts 153°
2026-05-07 20:20 40.17182 2.93984 21477 ft 375 kts 153°
2026-05-07 20:20 40.14904 2.95626 21049 ft 373 kts 153°
2026-05-07 20:20 40.12639 2.97257 20613 ft 369 kts 152°
2026-05-07 20:20 40.10427 2.98850 20437 ft 356 kts 152°
2026-05-07 20:21 40.08299 3.00378 20306 ft 342 kts 153°
2026-05-07 20:21 40.06134 3.01491 20142 ft 328 kts 167°
2026-05-07 20:21 40.03906 3.01848 19855 ft 320 kts 181°
2026-05-07 20:21 40.01703 3.01489 19480 ft 320 kts 194°
2026-05-07 20:22 39.99614 3.00593 19010 ft 320 kts 197°
2026-05-07 20:22 39.97537 2.99657 18529 ft 320 kts 197°
2026-05-07 20:22 39.95397 2.98700 17990 ft 321 kts 196°
2026-05-07 20:22 39.93287 2.97763 17482 ft 320 kts 196°
2026-05-07 20:23 39.91178 2.96830 16988 ft 319 kts 196°
2026-05-07 20:23 39.89086 2.95906 16501 ft 317 kts 196°
2026-05-07 20:23 39.87001 2.94982 15992 ft 316 kts 196°
2026-05-07 20:23 39.84959 2.93950 15666 ft 313 kts 205°
2026-05-07 20:24 39.83136 2.92370 15084 ft 319 kts 220°
2026-05-07 20:24 39.81691 2.90252 14717 ft 317 kts 233°
2026-05-07 20:24 39.80429 2.87863 14198 ft 319 kts 234°
2026-05-07 20:24 39.79193 2.85504 13968 ft 312 kts 233°
2026-05-07 20:25 39.77972 2.83173 13804 ft 310 kts 234°
2026-05-07 20:25 39.76782 2.80897 13658 ft 298 kts 234°
2026-05-07 20:25 39.75634 2.78705 13463 ft 290 kts 234°
2026-05-07 20:25 39.74503 2.76554 13124 ft 286 kts 234°
2026-05-07 20:26 39.73405 2.74476 12983 ft 271 kts 233°
2026-05-07 20:26 39.72364 2.72506 12825 ft 258 kts 234°
2026-05-07 20:26 39.71370 2.70624 12697 ft 247 kts 234°
2026-05-07 20:26 39.70427 2.68834 12520 ft 233 kts 234°
2026-05-07 20:27 39.69527 2.67127 12323 ft 225 kts 234°
2026-05-07 20:27 39.68644 2.65456 11962 ft 225 kts 234°
2026-05-07 20:27 39.68059 2.64348 11735 ft 223 kts 235°
2026-05-07 20:27 39.67180 2.62686 11371 ft 224 kts 235°
2026-05-07 20:28 39.66299 2.61011 10968 ft 226 kts 237°
2026-05-07 20:28 39.65626 2.59175 10634 ft 225 kts 250°
2026-05-07 20:28 39.65101 2.57261 10305 ft 225 kts 252°
2026-05-07 20:28 39.64600 2.55357 10007 ft 223 kts 252°
2026-05-07 20:29 39.64103 2.53458 9676 ft 222 kts 252°
2026-05-07 20:29 39.63598 2.51567 9298 ft 222 kts 252°
2026-05-07 20:29 39.63086 2.49676 8983 ft 221 kts 252°
2026-05-07 20:29 39.62579 2.47800 8634 ft 220 kts 252°
2026-05-07 20:30 39.62072 2.45937 8324 ft 218 kts 252°
2026-05-07 20:30 39.61567 2.44103 8040 ft 214 kts 252°
2026-05-07 20:30 39.61065 2.42280 7958 ft 215 kts 252°
2026-05-07 20:30 39.60567 2.40472 7973 ft 216 kts 252°
2026-05-07 20:31 39.60062 2.38641 7980 ft 216 kts 252°
2026-05-07 20:31 39.59557 2.36807 7971 ft 216 kts 252°
2026-05-07 20:31 39.59055 2.34973 7981 ft 217 kts 252°
2026-05-07 20:31 39.58550 2.33141 7972 ft 216 kts 252°
2026-05-07 20:32 39.58042 2.31302 7976 ft 216 kts 252°
2026-05-07 20:32 39.57534 2.29460 7979 ft 217 kts 252°
2026-05-07 20:32 39.57027 2.27623 7947 ft 215 kts 252°
2026-05-07 20:32 39.56524 2.25807 7682 ft 215 kts 252°
2026-05-07 20:33 39.56015 2.23982 7428 ft 215 kts 252°
2026-05-07 20:33 39.55503 2.22158 7182 ft 216 kts 252°
2026-05-07 20:33 39.54990 2.20331 6943 ft 216 kts 252°
2026-05-07 20:33 39.54476 2.18508 6704 ft 215 kts 252°
2026-05-07 20:34 39.53886 2.16724 6451 ft 216 kts 235°
2026-05-07 20:34 39.52736 2.15548 6295 ft 213 kts 196°
2026-05-07 20:34 39.51298 2.15463 6162 ft 207 kts 159°
2026-05-07 20:34 39.49982 2.16164 6075 ft 204 kts 149°
2026-05-07 20:35 39.48727 2.17006 5996 ft 203 kts 147°
2026-05-07 20:35 39.47479 2.17868 6015 ft 203 kts 147°
2026-05-07 20:35 39.46231 2.18735 6012 ft 204 kts 147°
2026-05-07 20:35 39.44979 2.19602 6008 ft 204 kts 147°
2026-05-07 20:36 39.43728 2.20466 6012 ft 204 kts 147°
2026-05-07 20:36 39.42479 2.21329 6010 ft 204 kts 147°
2026-05-07 20:36 39.41276 2.22265 5998 ft 198 kts 131°
2026-05-07 20:36 39.40621 2.23720 5725 ft 184 kts 94°
2026-05-07 20:37 39.40569 2.25354 5406 ft 182 kts 84°
2026-05-07 20:37 39.40651 2.26993 5163 ft 183 kts 83°
2026-05-07 20:37 39.40759 2.28634 4913 ft 182 kts 82°
2026-05-07 20:37 39.40871 2.30242 4700 ft 183 kts 82°
2026-05-07 20:38 39.41004 2.31881 4491 ft 183 kts 82°
2026-05-07 20:38 39.41140 2.33555 4288 ft 185 kts 82°
2026-05-07 20:38 39.41267 2.35169 4085 ft 182 kts 82°
2026-05-07 20:38 39.41395 2.36795 3871 ft 182 kts 82°
2026-05-07 20:39 39.41524 2.38424 3680 ft 181 kts 82°
2026-05-07 20:39 39.41651 2.40046 3476 ft 182 kts 82°
2026-05-07 20:39 39.41778 2.41668 3279 ft 180 kts 82°
2026-05-07 20:39 39.41905 2.43275 3099 ft 178 kts 82°
2026-05-07 20:40 39.42255 2.44785 3011 ft 177 kts 58°
2026-05-07 20:40 39.42889 2.46157 3007 ft 179 kts 58°
2026-05-07 20:40 39.43531 2.47534 3014 ft 178 kts 59°
2026-05-07 20:40 39.44177 2.48900 3004 ft 178 kts 58°
2026-05-07 20:41 39.44826 2.50263 3006 ft 178 kts 58°
2026-05-07 20:41 39.45478 2.51632 3005 ft 180 kts 58°
2026-05-07 20:41 39.46133 2.53006 3011 ft 179 kts 58°
2026-05-07 20:41 39.46787 2.54381 2937 ft 178 kts 58°
2026-05-07 20:42 39.47437 2.55746 2735 ft 179 kts 59°
2026-05-07 20:42 39.48084 2.57105 2502 ft 177 kts 58°
2026-05-07 20:42 39.48728 2.58458 2273 ft 176 kts 59°
2026-05-07 20:42 39.49367 2.59802 2044 ft 174 kts 58°
2026-05-07 20:43 39.49999 2.61133 1804 ft 171 kts 59°
2026-05-07 20:43 39.50593 2.62383 1607 ft 155 kts 59°
2026-05-07 20:43 39.51138 2.63528 1374 ft 146 kts 58°
2026-05-07 20:43 39.51659 2.64622 1199 ft 139 kts 57°
2026-05-07 20:44 39.52160 2.65669 1043 ft 136 kts 58°
2026-05-07 20:44 39.52660 2.66711 835 ft 137 kts 59°
2026-05-07 20:44 39.53166 2.67790 645 ft 144 kts 57°
2026-05-07 20:44 39.53681 2.68900 483 ft 143 kts 57°
2026-05-07 20:45 39.54203 2.69988 289 ft 140 kts 58°
2026-05-07 20:45 39.54703 2.71045 59 ft 135 kts 57°
2026-05-07 20:45 39.55150 2.71990 28 ft 103 kts 58°
2026-05-07 20:45 39.55421 2.72562 28 ft 33 kts 59°
2026-05-07 20:46 39.55478 2.72720 30 ft 15 kts 78°
2026-05-07 20:46 39.55491 2.72855 31 ft 15 kts 86°
2026-05-07 20:46 39.55495 2.72983 32 ft 9 kts 88°
2026-05-07 20:46 39.55496 2.73035 32 ft 5 kts 94°
2026-05-07 20:47 39.55476 2.73074 30 ft 5 kts 150°
2026-05-07 20:47 39.55443 2.73055 32 ft 6 kts 227°
2026-05-07 20:47 39.55424 2.73019 32 ft 0 kts 238°
2026-05-07 20:47 39.55421 2.73013 32 ft 2 kts 238°
2026-05-07 20:48 39.55410 2.72991 31 ft 3 kts 238°
2026-05-07 20:48 39.55396 2.72972 31 ft 3 kts 211°
2026-05-07 20:48 39.55366 2.72978 31 ft 6 kts 149°
2026-05-07 20:48 39.55367 2.73032 32 ft 8 kts 63°
2026-05-07 20:49 39.55401 2.73106 32 ft 11 kts 59°
2026-05-07 20:49 39.55415 2.73207 32 ft 12 kts 97°
2026-05-07 20:49 39.55404 2.73318 33 ft 12 kts 97°
2026-05-07 20:49 39.55424 2.73406 33 ft 11 kts 58°
2026-05-07 20:50 39.55466 2.73494 34 ft 12 kts 57°
2026-05-07 20:50 39.55495 2.73571 34 ft 7 kts 92°
2026-05-07 20:50 39.55453 2.73631 34 ft 12 kts 149°
2026-05-07 20:50 39.55377 2.73692 34 ft 14 kts 148°
2026-05-07 20:51 39.55293 2.73758 34 ft 15 kts 148°
2026-05-07 20:51 39.55201 2.73832 33 ft 16 kts 148°
2026-05-07 20:51 39.55104 2.73908 33 ft 17 kts 149°
2026-05-07 20:51 39.55010 2.73982 33 ft 11 kts 148°
2026-05-07 20:52 39.54954 2.73995 33 ft 8 kts 210°
2026-05-07 20:52 39.54904 2.73960 33 ft 8 kts 174°
2026-05-07 20:52 39.54847 2.73993 33 ft 9 kts 168°
2026-05-07 20:52 39.54792 2.73950 33 ft 10 kts 231°
2026-05-07 20:53 39.54753 2.73871 34 ft 11 kts 238°
2026-05-07 20:53 39.54714 2.73786 34 ft 11 kts 239°
2026-05-07 20:53 39.54672 2.73695 35 ft 12 kts 239°
2026-05-07 20:53 39.54652 2.73639 35 ft 4 kts 269°
2026-05-07 20:54 39.54674 2.73613 34 ft 5 kts 344°
2026-05-07 20:54 39.54697 2.73628 33 ft 3 kts 46°
2026-05-07 20:54 39.54711 2.73657 34 ft 4 kts 59°
2026-05-07 20:54 39.54720 2.73677 35 ft 1 kts 60°
2026-05-07 20:55 39.54722 2.73680 35 ft 0 kts 60°